This is the latest recevied weather packets stored in our database for station/object W9LRT-WX. If no packets are shown the sender has not sent any weather packets the latest 10 day(s).
| Time | Temp. | Humidity | Pressure | Rain* | Wind** | Luminosity | Snow |
|---|---|---|---|---|---|---|---|
| 1778152049 | 3.33° C | 79% | 1013.6 hPa | 0 mm | - | 28 W/m² | - |
| 1778151149 | 3.33° C | 79% | 1013.4 hPa | 0 mm | - | 9 W/m² | - |
| 1778150249 | 3.33° C | 78% | 1013.4 hPa | 0 mm | - | 0 W/m² | - |
| 1778149349 | 3.33° C | 78% | 1013.4 hPa | 0 mm | - | 0 W/m² | - |
| 1778148449 | 3.33° C | 78% | 1013.2 hPa | 0 mm | - | 0 W/m² | - |
| 1778147549 | 3.33° C | 77% | 1013.3 hPa | 0 mm | - | 0 W/m² | - |
| 1778146649 | 3.33° C | 77% | 1013.3 hPa | 0 mm | - | 0 W/m² | - |
| 1778145749 | 3.89° C | 76% | 1013.3 hPa | 0 mm | - | 0 W/m² | - |
| 1778144848 | 3.89° C | 76% | 1013.4 hPa | 0 mm | - | 0 W/m² | - |
| 1778143950 | 3.89° C | 76% | 1013.4 hPa | 0 mm | - | 0 W/m² | - |
| 1778143049 | 3.89° C | 76% | 1013.4 hPa | 0 mm | - | 0 W/m² | - |
| 1778142149 | 3.89° C | 75% | 1013.3 hPa | 0 mm | - | 0 W/m² | - |
| 1778141250 | 3.89° C | 74% | 1013.4 hPa | 0 mm | - | 0 W/m² | - |
| 1778140347 | 4.44° C | 73% | 1013.4 hPa | 0 mm | - | 0 W/m² | - |
| 1778139447 | 4.44° C | 72% | 1013.4 hPa | 0 mm | - | 0 W/m² | - |
| 1778138545 | 4.44° C | 71% | 1013.3 hPa | 0 mm | - | 0 W/m² | - |
| 1778137643 | 5° C | 71% | 1013.3 hPa | 0 mm | - | 0 W/m² | - |
| 1778136743 | 5° C | 71% | 1013.5 hPa | 0 mm | - | 0 W/m² | - |
| 1778135844 | 5° C | 71% | 1013.4 hPa | 0 mm | - | 0 W/m² | - |
| 1778134944 | 5.56° C | 70% | 1013.5 hPa | 0 mm | - | 0 W/m² | - |
| 1778134044 | 5.56° C | 69% | 1013.6 hPa | 0 mm | - | 0 W/m² | - |
| 1778133144 | 6.11° C | 67% | 1013.5 hPa | 0 mm | - | 0 W/m² | - |
| 1778132244 | 6.67° C | 66% | 1013.6 hPa | 0 mm | - | 0 W/m² | - |
| 1778131343 | 6.67° C | 66% | 1013.6 hPa | 0 mm | - | 0 W/m² | - |
| 1778130443 | 7.22° C | 67% | 1013.6 hPa | 0 mm | - | 0 W/m² | - |
* Rain latest hour (hover to see other rain measurements)
** Current wind speed in m/s (hover to see current wind gust speed)